Meteopurmerend
purmerend
Purmerend - Baaienwijk



My webcam  My webcam


waarschuwing voor Onweer Meer informatie blitzortung!


Regen radar Meer informatie rain snow radar


Bezoek onze andere website:

CandyAppleRed WebdesignWebdesign Purmerend Candy Apple Red

MeteopurmerendBlog

Template documentation
and downloads



Onweer van: 19-06-2019 10:00 tot: 23:00 waarschuwing voor: Onweer niveau: Geel info button
Enkele onweersbuien, mogelijk met hagel en windstoten tot ca. 75 km/uur.Verkeer en buitenactiviteiten kunnen hinder ondervinden.Mijd open water en open gebied, schuil niet onder bomen.Volg weerberichten en waarschuwingen.

15 daagse weersverwachting Stavanger (NO)

  • Overzicht
  • Per uur
  • 15 dagen
  • Extra
  • Vergelijk
  • Kaarten
  • Dagkaart
  • Meer »
  • Info
  • Statistieken
  • Directe link
    Temp 6h Neerslag Wind  
 04:26     22:53    Daglengte: 18:27 Vandaag
14:00
16°
 
2
20:00
13°
0.2 mm
2
 04:26     22:53    Daglengte: 18:27 Morgen
02:00
13°
 
1
08:00
12°
9.5 mm
2
14:00
14°
 
4
20:00
13°
 
5
 04:27     22:53    Daglengte: 18:26 Vrijdag 21 Jun
02:00
11°
 
4
08:00
12°
2.4 mm
5
14:00
13°
11.8 mm
7
warningclass
20:00
12°
19.6 mm
6
 04:27     22:54    Daglengte: 18:27 Zaterdag 22 Jun
02:00
11°
6.0 mm
4
08:00
12°
21.1 mm
5
Locatie info
Region: Rogaland
Latitude: 58.9710°N
Longitude: 5.7306°E
15 masl
Postcode: 4006
Temp/Neerslag /Baro Onweer/Dauwpunt
    Temp Baro 1h Neerslag Dauwpunt Wind UV Bewolking  
 04:26     22:53    Daglengte: 18:27 Vandaag
14:00
16°
1009.9 hPa
11%
10.9°
2
Windvlaag: 3.4 m/s
90%
15:00
15°
1009.8 hPa
35%
10.5°
3
Windvlaag: 3.7 m/s
91%
16:00
14°
1009.5 hPa
43%
10.7°
3
Windvlaag: 3.1 m/s
91%
17:00
14°
1009.0 hPa
78%
11.2°
3
Windvlaag: 3.6 m/s
90%
18:00
14°
1008.5 hPa 0.2 mm
82%
11.3°
2
Windvlaag: 3.5 m/s
86%
19:00
14°
1007.6 hPa
82%
10.8°
2
Windvlaag: 2.9 m/s
86%
20:00
13°
1007.1 hPa
82%
10.5°
2
Windvlaag: 3.1 m/s
80%
21:00
13°
1007.0 hPa
82%
10.5°
2
Windvlaag: 2.9 m/s
80%
22:00
13°
1006.5 hPa
73%
10.4°
2
Windvlaag: 2.8 m/s
86%
23:00
13°
1006.1 hPa
22%
10.6°
2
Windvlaag: 1.7 m/s
84%
 04:26     22:53    Daglengte: 18:27 Morgen
00:00
13°
1005.5 hPa
32%
10.8°
1
Windvlaag: 1.7 m/s
87%
01:00
13°
1005.0 hPa
82%
10.8°
1
Windvlaag: 1.4 m/s
87%
02:00
13°
1004.6 hPa
82%
10.9°
1
Windvlaag: 1.9 m/s
90%
03:00
13°
1004.0 hPa 1.1 mm
82%
11.1°
1
Windvlaag: 2.6 m/s
89%
04:00
13°
1003.6 hPa 1.5 mm
82%
11.2°
2
Windvlaag: 2.5 m/s
90%
05:00
13°
1003.2 hPa 2.2 mm
82%
11.5°
1
Windvlaag: 1.9 m/s
90%
06:00
12°
1002.9 hPa 2.6 mm
82%
11.5°
2
Windvlaag: 1.1 m/s
91%
07:00
12°
1002.8 hPa 2.2 mm
82%
11.5°
1
Windvlaag: 0.8 m/s
90%
08:00
12°
1003.0 hPa
78%
11.4°
2
Windvlaag: 2.1 m/s
91%
09:00
12°
1003.2 hPa
78%
11.4°
2
Windvlaag: 2.7 m/s
89%
10:00
13°
1003.7 hPa
63%
11.6°
3
Windvlaag: 3.7 m/s
78%
11:00
13°
1004.1 hPa
23%
11.5°
3
Windvlaag: 4.3 m/s
76%
12:00
13°
1004.5 hPa
16%
11.7°
2
Windvlaag: 4.2 m/s
76%
13:00
14°
1005.1 hPa
16%
11.4°
3
Windvlaag: 4.8 m/s
60%
14:00
14°
1005.6 hPa
16%
11.6°
4
Windvlaag: 5.4 m/s
48%
15:00
14°
1006.0 hPa
14%
11.2°
4
Windvlaag: 6 m/s
44%
16:00
14°
1006.3 hPa
14%
10.9°
4
Windvlaag: 6.6 m/s
31%
17:00
14°
1006.4 hPa
14%
10.6°
4
Windvlaag: 7.6 m/s
62%
18:00
14°
1006.6 hPa
58%
10.0°
5
Windvlaag: 7.8 m/s
77%
19:00
14°
1006.7 hPa
27%
10.1°
4
Windvlaag: 7.9 m/s
56%
20:00
13°
1007.0 hPa
15%
10.0°
5
Windvlaag: 7.9 m/s
37%
21:00
13°
1007.3 hPa
14%
9.6°
4
Windvlaag: 7.7 m/s
41%
22:00
13°
1007.9 hPa
14%
9.7°
4
Windvlaag: 7.5 m/s
39%
23:00
12°
1008.3 hPa
58%
10.0°
4
Windvlaag: 7.5 m/s
40%
 04:27     22:53    Daglengte: 18:26 Vrijdag 21 Jun
00:00
12°
1008.7 hPa
73%
10.1°
4
Windvlaag: 7.3 m/s
22%
01:00
12°
1008.8 hPa
71%
10.0°
4
Windvlaag: 6.4 m/s
15%
02:00
11°
1008.9 hPa
65%
9.9°
4
Windvlaag: 6.3 m/s
17%
03:00
11°
1009.1 hPa
22%
10.1°
4
Windvlaag: 6.6 m/s
20%
04:00
11°
1009.1 hPa
63%
10.3°
4
Windvlaag: 6.8 m/s
49%
05:00
11°
1009.1 hPa
74%
10.3°
4
Windvlaag: 6.6 m/s
37%
06:00
11°
1009.1 hPa
80%
10.0°
4
Windvlaag: 7 m/s
33%
07:00
12°
1009.2 hPa
82%
10.0°
4
Windvlaag: 7.1 m/s
56%
08:00
12°
1009.4 hPa 2.4 mm
82%
10.2°
5
Windvlaag: 8.4 m/s
54%
09:00
13°
1009.7 hPa 2.7 mm
82%
10.2°
6
Windvlaag: 9.3 m/s
65%
10:00
13°
1010.1 hPa
82%
10.4°
6
Windvlaag: 9.4 m/s
80% warningclass
11:00
13°
1010.5 hPa
100%
9.8°
6
Windvlaag: 9.6 m/s
88% warningclass
12:00
13°
1010.7 hPa 2.6 mm
100%
9.7°
6
Windvlaag: 10.5 m/s
86% warningclass
13:00
13°
1011.3 hPa 3.0 mm
100%
8.9°
5
Windvlaag: 10.7 m/s
68% warningclass
14:00
13°
1011.8 hPa 3.4 mm
100%
9.2°
7
Windvlaag: 10.9 m/s
77% warningclass
15:00
13°
1012.4 hPa 3.2 mm
100%
8.4°
6
Windvlaag: 10 m/s
86% warningclass
16:00
13°
1012.7 hPa 3.2 mm
100%
8.1°
6
Windvlaag: 9.4 m/s
80% warningclass
17:00
13°
1013.2 hPa 3.3 mm
100%
8.9°
6
Windvlaag: 9.2 m/s
59% warningclass
18:00
12°
1013.5 hPa 3.4 mm
100%
8.6°
7
Windvlaag: 9.4 m/s
61% warningclass
19:00
12°
1013.8 hPa 3.6 mm
100%
8.0°
6
Windvlaag: 8.4 m/s
69% warningclass
20:00
12°
1014.4 hPa 3.0 mm
100%
7.8°
6
Windvlaag: 7.7 m/s
65%
21:00
12°
1015.2 hPa 3.0 mm
100%
7.2°
5
Windvlaag: 7.4 m/s
65%
22:00
12°
1015.8 hPa 2.9 mm
100%
7.5°
5
Windvlaag: 6.5 m/s
59%
23:00
12°
1016.3 hPa
100%
7.7°
4
Windvlaag: 5.8 m/s
58%
 04:27     22:54    Daglengte: 18:27 Zaterdag 22 Jun
00:00
12°
1017.0 hPa
100%
7.3°
5
Windvlaag: 6.2 m/s
73%
01:00
11°
1017.5 hPa
100%
8.3°
5
Windvlaag: 6.2 m/s
56%
02:00
11°
1018.0 hPa
100%
6.9°
4
Windvlaag: 5.9 m/s
27%
03:00
11°
1018.3 hPa 2.8 mm
100%
7.1°
4
Windvlaag: 0.8 m/s
48%
04:00
11°
1018.6 hPa 3.0 mm
100%
7.4°
4
Windvlaag: 1.3 m/s
38%
05:00
11°
1019.0 hPa 4.6 mm
100%
7.6°
4
Windvlaag: 1.4 m/s
34%
06:00
11°
1019.4 hPa 4.6 mm
97%
7.9°
4
Windvlaag: 1.4 m/s
43%
07:00
11°
1019.7 hPa 2.8 mm
96%
8.1°
4
Windvlaag: 2.5 m/s
43%
08:00
12°
1020.0 hPa 3.4 mm
100%
8.4°
5
Windvlaag: 2.4 m/s
38%
09:00
12°
1020.3 hPa 4.3 mm
99%
8.4°
5
Windvlaag: 5.7 m/s
19%
10:00
12°
1020.7 hPa 4.4 mm
100%
8.5°
4
Windvlaag: 5.4 m/s
17%
11:00
12°
1021.0 hPa 4.4 mm
100%
8.4°
5
Windvlaag: 6.1 m/s
39%
12:00
13°
1021.3 hPa
94%
8.7°
5
Windvlaag: 6.8 m/s
33%
13:00
13°
1021.7 hPa
88%
8.6°
5
Windvlaag: 7.1 m/s
32%
Temp/Neerslag /Baro Onweer/Dauwpunt
    Temp Baro Neerslag Dauwpunt Wind Bewolking  
 04:26     22:53    Daglengte: 18:27 Vandaag
14:00
16°
1009.9 hPa   10.9°
2
90%
17:00
14°
1009.0 hPa   11.2°
3
90%
20:00
13°
1007.1 hPa 0.2 mm 10.5°
2
80%
23:00
13°
1006.1 hPa   10.6°
2
84%
 04:26     22:53    Daglengte: 18:27 Morgen
02:00
13°
1004.6 hPa   10.9°
1
90%
05:00
13°
1003.2 hPa 4.8 mm 11.5°
1
90%
08:00
12°
1003.0 hPa 4.8 mm 11.4°
2
91%
11:00
13°
1004.1 hPa   11.5°
3
76%
14:00
14°
1005.6 hPa   11.6°
4
48%
17:00
14°
1006.4 hPa   10.6°
4
62%
20:00
13°
1007.0 hPa   10.0°
5
37%
23:00
12°
1008.3 hPa   10.0°
4
40%
 04:27     22:53    Daglengte: 18:26 Vrijdag 21 Jun
02:00
11°
1008.9 hPa   9.9°
4
17%
05:00
11°
1009.1 hPa   10.3°
4
37%
08:00
12°
1009.4 hPa 2.4 mm 10.2°
5
54%
11:00
13°
1010.5 hPa 2.7 mm 9.8°
6
88% warningclass
14:00
13°
1011.8 hPa 9.1 mm 9.2°
7
77% warningclass
17:00
13°
1013.2 hPa 9.6 mm 8.9°
6
59% warningclass
20:00
12°
1014.4 hPa 10.0 mm 7.8°
6
65%
23:00
12°
1016.3 hPa 6.0 mm 7.7°
4
58%
 04:27     22:54    Daglengte: 18:27 Zaterdag 22 Jun
02:00
11°
1018.0 hPa   6.9°
4
27%
05:00
11°
1019.0 hPa 10.4 mm 7.6°
4
34%
08:00
12°
1020.0 hPa 10.8 mm 8.4°
5
38%
11:00
12°
1021.0 hPa 13.1 mm 8.4°
5
39%
14:00
13°
1022.0 hPa 13.0 mm 8.6°
5
21%
17:00
13°
1022.8 hPa 24.0 mm 8.3°
4
25%
20:00
13°
1022.7 hPa 24.0 mm 8.4°
3
27%
23:00
12°
1023.3 hPa 24.0 mm 9.0°
3
36%
 04:27     22:54    Daglengte: 18:27 Zondag 23 Jun
02:00
11°
1023.9 hPa 24.0 mm 9.4°
2
45%
05:00
12°
1024.4 hPa 24.0 mm 9.4°
2
54%
08:00
12°
1025.0 hPa 24.0 mm 9.3°
2
64%
11:00
13°
1025.7 hPa 24.0 mm 9.4°
3
73%
14:00
14°
1026.4 hPa 24.0 mm 9.2°
3
82%
17:00
14°
1026.2 hPa 24.0 mm 9.5°
3
63%
20:00
14°
1025.9 hPa 24.0 mm 9.9°
3
44%
23:00
13°
1026.4 hPa 24.0 mm 10.1°
2
66%
 04:28     22:54    Daglengte: 18:26 Maandag 24 Jun
02:00
12°
1026.9 hPa 24.0 mm 10.0°
2
87%
05:00
12°
1026.9 hPa 24.0 mm 10.0°
2
88%
08:00
12°
1026.9 hPa 24.0 mm 10.1°
2
90%
11:00
14°
1027.1 hPa 24.0 mm 10.2°
2
91%
14:00
16°
1027.3 hPa 24.0 mm 10.0°
3
91%
17:00
16°
1027.1 hPa 24.0 mm 10.4°
3
91%
20:00
15°
1026.9 hPa 24.0 mm 10.8°
2
90%
23:00
14°
1027.4 hPa 24.2 mm 11.2°
2
90%
 04:28     22:54    Daglengte: 18:26 Dinsdag 25 Jun
02:00
13°
1027.8 hPa 25.3 mm 11.4°
2
90%
05:00
14°
1027.5 hPa 27.3 mm 11.8°
2
90%
08:00
15°
1027.3 hPa 27.4 mm 12.2°
1
91%
11:00
15°
1027.0 hPa 28.2 mm 12.2°
2
91%
14:00
16°
1026.6 hPa 28.5 mm 12.0°
3
91%
17:00
16°
1026.1 hPa 28.5 mm 12.1°
3
90%
20:00
16°
1025.5 hPa 29.5 mm 12.3°
3
90%
23:00
15°
1025.6 hPa 29.5 mm 12.6°
2
88%
 04:29     22:53    Daglengte: 18:24 Woensdag 26 Jun
02:00
14°
1025.7 hPa 29.5 mm 12.8°
2
86%
05:00
14°
1024.9 hPa 29.5 mm 12.7°
2
84%
08:00
15°
1024.2 hPa 29.5 mm 12.6°
2
81%
11:00
16°
1024.6 hPa   11.9°
4
41%
14:00
17°
1024.9 hPa 59.1 mm 10.9°
5
2%
20:00
14°
1022.3 hPa 59.1 mm 10.8°
6
37%
 04:29     22:53    Daglengte: 18:24 Donderdag 27 Jun
02:00
12°
1022.9 hPa 59.1 mm 9.9°
5
83%
08:00
12°
1021.4 hPa 59.1 mm 9.9°
5
83%
14:00
15°
1020.6 hPa 59.1 mm 9.8°
6
80%
20:00
14°
1018.0 hPa 59.1 mm 10.3°
6
56%
 04:30     22:53    Daglengte: 18:23 Vrijdag 28 Jun
02:00
12°
1018.0 hPa 59.1 mm 9.7°
5
69%
08:00
12°
1016.3 hPa 59.1 mm 9.4°
5
82%
14:00
15°
1015.9 hPa 59.1 mm 9.7°
5
65%
20:00
14°
1014.0 hPa 59.3 mm 10.1°
6
47%
 04:31     22:52    Daglengte: 18:21 Zaterdag 29 Jun
02:00
14°
1012.2 hPa 74.6 mm 12.6°
4
1%
08:00
13°
1012.3 hPa 0.4 mm 10.4°
2
39%
14:00
14°
1012.3 hPa 0.3 mm 9.9°
4
32%
20:00
14°
1011.4 hPa 0.1 mm 9.7°
3
26%
 04:32     22:52    Daglengte: 18:20 Zondag 30 Jun
02:00
13°
1011.1 hPa 0.6 mm 9.7°
2
40%
08:00
13°
1010.4 hPa 0.6 mm 9.7°
1
43%
14:00
14°
1010.4 hPa 0.4 mm 10.1°
3
40%
20:00
14°
1010.1 hPa 0.3 mm 10.1°
3
37%
 04:33     22:51    Daglengte: 18:18 Maandag 01 Jul
02:00
13°
1010.5 hPa 0.5 mm 9.9°
2
41%
08:00
13°
1010.0 hPa 0.3 mm 9.8°
2
42%
14:00
14°
1010.0 hPa 0.2 mm 9.7°
4
39%
20:00
14°
1009.6 hPa 0.3 mm 9.7°
5
38%
 04:34     22:51    Daglengte: 18:17 Dinsdag 02 Jul
02:00
13°
1010.1 hPa 0.1 mm 9.4°
4
41%
08:00
13°
1010.0 hPa 0.2 mm 9.2°
4
38%
14:00
14°
1010.3 hPa 0.2 mm 9.5°
5
38%
20:00
14°
1010.4 hPa 0.3 mm 9.8°
6
41%
 04:35     22:50    Daglengte: 18:15 Woensdag 03 Jul
02:00
13°
1011.2 hPa 0.2 mm 9.5°
4
38%
08:00
13°
1011.2 hPa 0.3 mm 9.2°
4
31%
14:00
14°
1011.7 hPa 0.3 mm 9.5°
5
28%
20:00
13°
1011.7 hPa 0.3 mm 9.3°
5
24%
 04:36     22:49    Daglengte: 18:13 Donderdag 04 Jul
02:00
12°
1012.3 hPa 0.1 mm 9.1°
3
22%
08:00
13°
1012.2 hPa 0.1 mm 8.9°
3
29%
  CAPE Lifted Index Hail Supercell Tornado SRH 3km CL BTM PRES CL TOP PRES Swiss DWD icon SMHI TS
 04:26     22:53    Daglengte: 18:27 Vandaag
14:00 0 J/kg 7.2 K 0 % 0 % 0 % 0 m²/s² 0 0 7.44 3
15:00 2 J/kg 7.8 K 0 % 0 % 0 % 0 m²/s² 0 0 8.01 61
16:00 0 J/kg 7.9 K 0 % 0 % 0 % 0 m²/s² 0 0 8.08 61
17:00 0 J/kg 6.7 K 0 % 0 % 0 % 0 m²/s² 0 0 6.91 61
18:00 0 J/kg 5.8 K 0 % 0 % 0 % 0 m²/s² 0 0 6.13 61
19:00 0 J/kg 4.9 K 0 % 0 % 0 % 0 m²/s² 0 0 5.29 61
20:00 0 J/kg 4.1 K 0 % 0 % 0 % 0 m²/s² 0 0 4.67 61
21:00 0 J/kg 3.6 K 0 % 0 % 0 % 0 m²/s² 0 0 3.69 61
22:00 0 J/kg 3.2 K 0 % 0 % 0 % 0 m²/s² 0 0 3.38 3
23:00 0 J/kg 3.3 K 0 % 0 % 0 % 0 m²/s² 0 0 3.48 3
 04:26     22:53    Daglengte: 18:27 Morgen
00:00 0 J/kg 3.3 K 0 % 0 % 0 % 0 m²/s² 0 0 3.51 3
01:00 0 J/kg 1.7 K 0 % 0 % 0 % 0 m²/s² 0 0 2.21 61
02:00 0 J/kg 1.4 K 0 % 0 % 0 % 0 m²/s² 0 0 1.82 61
03:00 0 J/kg 1.9 K 0 % 0 % 0 % 0 m²/s² 0 0 1.9 61
04:00 0 J/kg 2.0 K 0 % 0 % 0 % 0 m²/s² 0 0 2.03 61
05:00 0 J/kg 2.0 K 0 % 0 % 0 % 0 m²/s² 0 0 2.03 61
06:00 1 J/kg 2.4 K 0 % 0 % 0 % 0 m²/s² 0 0 2.58 61
07:00 1 J/kg 2.6 K 0 % 0 % 0 % 0 m²/s² 0 0 2.84 61
08:00 1 J/kg 2.7 K 0 % 0 % 0 % 0 m²/s² 0 0 2.91 61
09:00 1 J/kg 3.0 K 0 % 0 % 0 % 0 m²/s² 0 0 3.51 61
10:00 4 J/kg 3.3 K 0 % 0 % 0 % 0 m²/s² 0 0 4.23 3
11:00 4 J/kg 4.1 K 0 % 0 % 0 % 0 m²/s² 0 0 5.63 3
12:00 7 J/kg 4.9 K 0 % 0 % 0 % 0 m²/s² 0 0 7.06 3
13:00 11 J/kg 5.6 K 0 % 0 % 0 % 0 m²/s² 0 0 8.48 2
14:00 14 J/kg 6.1 K 0 % 0 % 0 % 0 m²/s² 0 0 10.81 0
15:00 7 J/kg 6.3 K 0 % 0 % 0 % 0 m²/s² 0 0 12.27 1
16:00 5 J/kg 5.7 K 0 % 0 % 0 % 0 m²/s² 0 0 9.63 1
17:00 12 J/kg 4.9 K 0 % 0 % 0 % 0 m²/s² 0 0 8.08 3
18:00 22 J/kg 4.1 K 0 % 0 % 0 % 0 m²/s² 0 0 5.66 3
19:00 52 J/kg 3.9 K 0 % 0 % 0 % 0 m²/s² 0 0 5.04 2
20:00 42 J/kg 4.8 K 0 % 0 % 0 % 0 m²/s² 0 0 7.17 1
21:00 66 J/kg 4.7 K 0 % 0 % 0 % 0 m²/s² 0 0 10.1 2
22:00 63 J/kg 4.9 K 0 % 0 % 0 % 0 m²/s² 0 0 10.9 1
23:00 58 J/kg 4.5 K 0 % 0 % 0 % 0 m²/s² 0 0 9.57 2
 04:27     22:53    Daglengte: 18:26 Vrijdag 21 Jun
00:00 53 J/kg 4.0 K 0 % 0 % 0 % 0 m²/s² 0 0 8.44 2
01:00 72 J/kg 3.2 K 0 % 0 % 0 % 0 m²/s² 0 0 6.89 0
02:00 129 J/kg 1.8 K 0 % 0 % 0 % 0 m²/s² 0 0 5.04 1
03:00 159 J/kg 1.7 K 0 % 0 % 0 % 0 m²/s² 0 0 4.01 3
04:00 220 J/kg 1.2 K 0 % 0 % 0 % 0 m²/s² 0 0 3.39 3
05:00 266 J/kg 0.6 K 0 % 0 % 0 % 0 m²/s² 0 0 1.89 2
06:00 298 J/kg 0.4 K 0 % 0 % 0 % 0 m²/s² 0 0 1.54 80
07:00 329 J/kg 0.2 K 0 % 0 % 0 % 0 m²/s² 0 0 1.25 80
08:00 396 J/kg -0.3 K 0 % 0 % 0 % 0 m²/s² 0 0 0.48 80
09:00 426 J/kg -0.6 K 0 % 0 % 0 % 0 m²/s² 0 0 0.12 80
10:00 475 J/kg -1.1 K 0 % 0 % 0 % 0 m²/s² 0 0 0.91 95
11:00 255 J/kg -0.1 K 0 % 0 % 0 % 0 m²/s² 0 0 1.1 95
12:00 189 J/kg 0.7 K 0 % 0 % 0 % 0 m²/s² 0 0 1.57 95
13:00 279 J/kg 0.2 K 0 % 0 % 0 % 0 m²/s² 0 0 1.91 95
14:00 391 J/kg -0.4 K 0 % 0 % 0 % 0 m²/s² 0 0 1.73 95
15:00 325 J/kg 0.1 K 0 % 0 % 0 % 0 m²/s² 0 0 2.11 95
16:00 259 J/kg 0.5 K 0 % 0 % 0 % 0 m²/s² 0 0 2.09 95
17:00 305 J/kg 0.2 K 0 % 0 % 0 % 0 m²/s² 0 0 1.85 95
18:00 340 J/kg 0.1 K 0 % 0 % 0 % 0 m²/s² 0 0 1.93 95
19:00 249 J/kg 0.8 K 0 % 0 % 0 % 0 m²/s² 0 0 2.03 95
20:00 250 J/kg 0.7 K 0 % 0 % 0 % 0 m²/s² 0 0 1.87 80
21:00 205 J/kg 1.0 K 0 % 0 % 0 % 0 m²/s² 0 0 2.05 80
22:00 230 J/kg 1.0 K 0 % 0 % 0 % 0 m²/s² 0 0 1.99 80
23:00 200 J/kg 1.5 K 0 % 0 % 0 % 0 m²/s² 0 0 2.37 80
 04:27     22:54    Daglengte: 18:27 Zaterdag 22 Jun
00:00 302 J/kg 0.5 K 0 % 0 % 0 % 0 m²/s² 0 0 1.64 80
01:00 363 J/kg 0.0 K 0 % 0 % 0 % 0 m²/s² 0 0 1.35 80
02:00 232 J/kg 1.2 K 0 % 0 % 0 % 0 m²/s² 0 0 2.88 80
03:00 138 J/kg 2.1 K 0 % 0 % 0 % 0 m²/s² 0 0 4.53 80
04:00 157 J/kg 2.5 K 0 % 0 % 0 % 0 m²/s² 0 0 5.02 80
05:00 110 J/kg 3.6 K 0 % 0 % 0 % 0 m²/s² 0 0 6.03 80
06:00 124 J/kg 3.9 K 0 % 0 % 0 % 0 m²/s² 0 0 6.12 80
07:00 98 J/kg 4.5 K 0 % 0 % 0 % 0 m²/s² 0 0 7.41 2
08:00 87 J/kg 4.9 K 0 % 0 % 0 % 0 m²/s² 0 0 8.59 2
09:00 73 J/kg 5.3 K 0 % 0 % 0 % 0 m²/s² 0 0 9.5 1
10:00 63 J/kg 5.6 K 0 % 0 % 0 % 0 m²/s² 0 0 9.92 3
11:00 47 J/kg 6.4 K 0 % 0 % 0 % 0 m²/s² 0 0 10.3 3
12:00 68 J/kg 5.8 K 0 % 0 % 0 % 0 m²/s² 0 0 9.52 3
13:00 47 J/kg 6.3 K 0 % 0 % 0 % 0 m²/s² 0 0 10.11 3
Temp Baro Wind Neerslag
  EWN Forecast EWN WRFDA DWD ICON FMI HIRLAM MET Norway GFS
 04:26     22:53    Daglengte: 18:27 Vandaag
14:00 15.8° 1009.9 hPa 2.1 m/s 0.0 mm 14.5° 1009.7 hPa 5.7 m/s 0.0 mm 15.4° 1009.8 hPa 0.5 m/s -2.0 mm 15.9° 1009.9 hPa 2.3 m/s 0.0 mm 17.8° 1010.0 hPa 1.8 m/s 0.0 mm 14.1° 1010.3 hPa 2.4 m/s
17:00 14.0° 1009.0 hPa 2.7 m/s 0.0 mm 14.1° 1008.7 hPa 4.1 m/s 0.0 mm 13.3° 1009.2 hPa 2.5 m/s 0.5 mm 13.7° 1009.5 hPa 2.5 m/s 0.0 mm 16.0° 1008.8 hPa 1.9 m/s 0.0 mm 12.4° 1009.0 hPa 1.7 m/s
20:00 13.4° 1007.1 hPa 2.1 m/s 0.2 mm 13.0° 1006.2 hPa 2.1 m/s 0.4 mm 12.3° 1007.1 hPa 1.7 m/s 1.4 mm 13.3° 1008.0 hPa 1.4 m/s 0.0 mm 15.6° 1006.7 hPa 2.5 m/s 0.0 mm 12.0° 1007.4 hPa 1.0 m/s
23:00 12.9° 1006.1 hPa 1.7 m/s 0.0 mm 11.9° 1005.5 hPa 1.6 m/s 0.9 mm 12.3° 1006.2 hPa 1.2 m/s 0.1 mm 12.9° 1007.0 hPa 1.2 m/s 0.0 mm 14.3° 1005.1 hPa 1.8 m/s 0.0 mm 12.2° 1006.5 hPa 3.5 m/s
 04:26     22:53    Daglengte: 18:27 Morgen
02:00 12.7° 1004.6 hPa 1.4 m/s 0.0 mm 11.3° 1003.3 hPa 3.5 m/s 5.2 mm 12.0° 1004.5 hPa 0.9 m/s 2.2 mm 12.9° 1006.2 hPa 1.3 m/s 0.0 mm 14.1° 1004.0 hPa 1.2 m/s 0.0 mm 11.7° 1005.0 hPa 2.9 m/s
05:00 12.5° 1003.2 hPa 1.4 m/s 4.8 mm 10.7° 1001.6 hPa 2.0 m/s 13.5 mm 11.9° 1002.9 hPa 1.8 m/s 4.0 mm 13.0° 1004.9 hPa 1.0 m/s 0.0 mm 13.2° 1003.0 hPa 0.6 m/s 1.0 mm 11.5° 1003.1 hPa 2.2 m/s
08:00 12.4° 1003.0 hPa 2.0 m/s 4.8 mm 11.0° 1000.9 hPa 2.2 m/s 26.0 mm 11.9° 1002.9 hPa 2.0 m/s 2.8 mm 12.9° 1004.0 hPa 1.8 m/s 0.0 mm 13.2° 1002.1 hPa 1.8 m/s 2.3 mm 11.6° 1002.4 hPa 2.3 m/s
11:00 12.8° 1004.1 hPa 3.0 m/s 0.0 mm 11.9° 1002.1 hPa 4.1 m/s 27.5 mm 12.5° 1004.3 hPa 3.0 m/s 0.1 mm 13.7° 1004.3 hPa 2.0 m/s 0.0 mm 13.1° 1003.2 hPa 3.0 m/s 2.3 mm 11.5° 1003.1 hPa 3.7 m/s
14:00 13.9° 1005.6 hPa 3.5 m/s 0.0 mm 12.7° 1004.0 hPa 4.4 m/s 27.8 mm 14.3° 1005.9 hPa 2.2 m/s 0.0 mm 14.1° 1005.5 hPa 3.9 m/s 0.0 mm 14.1° 1005.6 hPa 3.5 m/s 0.0 mm 12.7° 1004.2 hPa 2.8 m/s
17:00 14.1° 1006.4 hPa 4.5 m/s 0.0 mm 12.6° 1004.3 hPa 4.4 m/s 28.1 mm 14.3° 1007.0 hPa 3.7 m/s 0.0 mm 13.9° 1006.2 hPa 2.9 m/s 0.0 mm 15.3° 1006.5 hPa 4.8 m/s 0.0 mm 13.2° 1004.9 hPa 4.4 m/s
20:00 13.3° 1007.0 hPa 4.5 m/s 0.0 mm 11.9° 1005.2 hPa 6.1 m/s 28.5 mm 12.9° 1007.8 hPa 3.6 m/s 0.1 mm 13.6° 1006.8 hPa 2.1 m/s 0.0 mm 14.3° 1007.0 hPa 4.7 m/s 0.0 mm 12.3° 1005.8 hPa 5.8 m/s
23:00 12.4° 1008.3 hPa 4.2 m/s 0.0 mm 10.8° 1006.1 hPa 4.4 m/s 28.8 mm 12.1° 1008.8 hPa 3.7 m/s 0.0 mm 12.5° 1007.7 hPa 3.4 m/s 0.0 mm 12.7° 1008.5 hPa 4.1 m/s 0.0 mm 11.2° 1007.6 hPa 5.5 m/s
 04:27     22:53    Daglengte: 18:26 Vrijdag 21 Jun
02:00 11.5° 1008.9 hPa 3.9 m/s 0.0 mm 11.3° 1006.3 hPa 5.3 m/s 29.0 mm 11.4° 1009.5 hPa 3.4 m/s 0.1 mm 12.4° 1008.4 hPa 4.0 m/s 0.0 mm 10.6° 1009.1 hPa 3.3 m/s 0.0 mm 10.7° 1008.5 hPa 5.8 m/s
05:00 11.4° 1009.1 hPa 4.0 m/s 0.0 mm 11.4° 1007.2 hPa 4.7 m/s 30.0 mm 11.5° 1009.8 hPa 3.4 m/s 0.1 mm 11.6° 1008.9 hPa 3.8 m/s 0.0 mm 10.9° 1009.2 hPa 3.6 m/s 0.0 mm 10.9° 1009.2 hPa 5.0 m/s
08:00 12.5° 1009.4 hPa 5.0 m/s 2.4 mm 12.1° 1007.5 hPa 4.7 m/s 30.7 mm 12.1° 1009.6 hPa 4.7 m/s 1.8 mm 12.5° 1009.4 hPa 5.0 m/s 0.0 mm 12.6° 1009.6 hPa 4.8 m/s 0.0 mm 11.9° 1009.6 hPa 4.8 m/s
11:00 13.1° 1010.5 hPa 5.7 m/s 2.7 mm 11.8° 1008.9 hPa 6.3 m/s 34.1 mm 12.6° 1011.2 hPa 5.1 m/s 4.3 mm 13.4° 1010.6 hPa 5.3 m/s 0.0 mm 12.0° 1010.7 hPa 7.2 m/s
14:00 13.1° 1011.8 hPa 6.9 m/s 9.1 mm 12.8° 1010.2 hPa 7.2 m/s 36.2 mm 12.6° 1011.9 hPa 3.8 m/s 4.6 mm 14.7° 1012.5 hPa 7.3 m/s 1.6 mm 11.7° 1012.1 hPa 7.8 m/s
17:00 12.6° 1013.2 hPa 6.3 m/s 9.6 mm 12.6° 1011.6 hPa 6.0 m/s 36.2 mm 12.2° 1013.3 hPa 3.9 m/s 4.3 mm 13.1° 1014.1 hPa 6.9 m/s 0.0 mm 11.3° 1013.4 hPa 7.3 m/s
20:00 11.9° 1014.4 hPa 5.9 m/s 10.0 mm 11.7° 1012.4 hPa 6.5 m/s 36.3 mm 11.4° 1014.4 hPa 3.7 m/s 4.3 mm 12.5° 1015.3 hPa 5.8 m/s 0.0 mm 11.1° 1014.5 hPa 7.2 m/s
23:00 11.6° 1016.3 hPa 4.1 m/s 6.0 mm 11.6° 1013.2 hPa 5.9 m/s 36.5 mm 10.7° 1015.8 hPa 3.4 m/s 2.9 mm 11.7° 1017.1 hPa 3.5 m/s 0.0 mm 10.8° 1016.4 hPa 6.3 m/s
 04:27     22:54    Daglengte: 18:27 Zaterdag 22 Jun
02:00 11.1° 1018.0 hPa 4.3 m/s 0.0 mm 11.5° 1014.7 hPa 5.5 m/s 37.5 mm 10.5° 1017.1 hPa 3.6 m/s 1.7 mm 11.1° 1018.7 hPa 3.7 m/s 0.0 mm 11.0° 1017.6 hPa 6.1 m/s
05:00 11.2° 1019.0 hPa 4.4 m/s 10.4 mm 11.3° 1016.0 hPa 4.6 m/s 38.1 mm 10.4° 1018.3 hPa 2.8 m/s 1.2 mm 11.2° 1019.7 hPa 4.2 m/s 11.0° 1018.7 hPa 4.2 m/s
08:00 11.5° 1020.0 hPa 4.6 m/s 10.8 mm 11.9° 1017.6 hPa 4.7 m/s 38.3 mm 11.4° 1019.5 hPa 3.9 m/s 0.9 mm 11.4° 1020.7 hPa 4.6 m/s 11.4° 1019.8 hPa 3.6 m/s
11:00 12.4° 1021.0 hPa 4.6 m/s 13.1 mm 12.9° 1019.2 hPa 4.3 m/s 38.5 mm 12.4° 1020.4 hPa 4.5 m/s 0.4 mm 12.3° 1021.9 hPa 4.8 m/s 11.8° 1021.3 hPa 3.4 m/s
14:00 13.5° 1022.0 hPa 4.9 m/s 13.0 mm 13.7° 1020.0 hPa 5.7 m/s 38.5 mm 13.7° 1021.2 hPa 4.2 m/s 0.2 mm 13.2° 1023.1 hPa 4.9 m/s 12.2° 1022.0 hPa 3.1 m/s
17:00 13.1° 1022.8 hPa 3.9 m/s 24.0 mm 13.1° 1022.8 hPa 4.0 m/s 12.8° 1022.2 hPa 2.1 m/s 24.0 mm
20:00 13.1° 1022.7 hPa 3.4 m/s 24.0 mm 13.1° 1022.7 hPa 3.6 m/s 12.8° 1022.2 hPa 0.9 m/s 24.0 mm
23:00 12.2° 1023.3 hPa 2.9 m/s 24.0 mm 12.2° 1023.3 hPa 3.0 m/s 12.0° 1023.5 hPa 2.3 m/s 24.0 mm
 04:27     22:54    Daglengte: 18:27 Zondag 23 Jun
02:00 11.3° 1023.9 hPa 2.4 m/s 24.0 mm 11.3° 1023.9 hPa 2.3 m/s 11.3° 1023.7 hPa 3.1 m/s 24.0 mm
05:00 11.7° 1024.4 hPa 2.4 m/s 24.0 mm 11.8° 1024.5 hPa 2.3 m/s 10.7° 1023.8 hPa 3.1 m/s 24.0 mm
08:00 12.2° 1025.0 hPa 2.3 m/s 24.0 mm 12.3° 1025.1 hPa 2.3 m/s 11.6° 1024.0 hPa 2.1 m/s 24.0 mm
11:00 13.3° 1025.7 hPa 2.6 m/s 24.0 mm 13.4° 1025.8 hPa 2.7 m/s 12.7° 1024.8 hPa 1.5 m/s 24.0 mm
14:00 14.4° 1026.4 hPa 3.0 m/s 24.0 mm 14.5° 1026.5 hPa 3.1 m/s 13.0° 1025.2 hPa 1.5 m/s 24.0 mm
17:00 14.2° 1026.2 hPa 2.8 m/s 24.0 mm 14.3° 1026.2 hPa 2.9 m/s 13.0° 1025.2 hPa 1.6 m/s 24.0 mm
20:00 14.0° 1025.9 hPa 2.6 m/s 24.0 mm 14.1° 1026.0 hPa 2.6 m/s 12.9° 1024.8 hPa 2.2 m/s 24.0 mm
23:00 12.9° 1026.4 hPa 2.2 m/s 24.0 mm 12.9° 1026.5 hPa 2.2 m/s 12.5° 1026.0 hPa 2.2 m/s 24.0 mm
 04:28     22:54    Daglengte: 18:26 Maandag 24 Jun
02:00 11.7° 1026.9 hPa 2.0 m/s 24.0 mm 11.7° 1026.9 hPa 1.9 m/s 12.1° 1026.6 hPa 2.8 m/s 24.0 mm
05:00 12.0° 1026.9 hPa 2.0 m/s 24.0 mm 12.1° 1027.0 hPa 1.9 m/s 11.9° 1026.4 hPa 4.1 m/s 24.0 mm
08:00 12.4° 1026.9 hPa 2.0 m/s 24.0 mm 12.4° 1027.0 hPa 1.8 m/s 11.8° 1026.1 hPa 4.3 m/s 24.0 mm
11:00 14.1° 1027.1 hPa 2.3 m/s 24.0 mm 14.2° 1027.2 hPa 2.2 m/s 12.7° 1026.3 hPa 2.4 m/s 24.0 mm
14:00 15.8° 1027.3 hPa 2.7 m/s 24.0 mm 16.0° 1027.4 hPa 2.7 m/s 13.5° 1026.0 hPa 2.7 m/s 24.0 mm
17:00 15.6° 1027.1 hPa 2.6 m/s 24.0 mm 15.7° 1027.2 hPa 2.7 m/s 14.5° 1025.5 hPa 1.6 m/s 24.0 mm
20:00 15.4° 1026.9 hPa 2.5 m/s 24.0 mm 15.4° 1027.0 hPa 2.6 m/s 14.8° 1025.2 hPa 1.2 m/s 24.0 mm
23:00 14.2° 1027.4 hPa 2.3 m/s 24.2 mm 14.4° 1027.5 hPa 2.0 m/s 12.9° 1026.6 hPa 5.2 m/s 24.2 mm
 04:28     22:54    Daglengte: 18:26 Dinsdag 25 Jun
02:00 13.2° 1027.8 hPa 1.6 m/s 25.3 mm 13.3° 1027.9 hPa 1.4 m/s 11.6° 1026.9 hPa 4.3 m/s 25.3 mm
05:00 13.8° 1027.5 hPa 1.7 m/s 27.3 mm 13.9° 1027.7 hPa 1.4 m/s 12.1° 1026.2 hPa 5.7 m/s 27.3 mm
08:00 14.5° 1027.3 hPa 1.2 m/s 27.4 mm 14.6° 1027.4 hPa 1.3 m/s 13.8° 1026.2 hPa 0.5 m/s 27.4 mm
11:00 15.3° 1027.0 hPa 2.0 m/s 28.2 mm 15.5° 1027.0 hPa 2.0 m/s 13.4° 1027.0 hPa 1.4 m/s 28.2 mm
14:00 16.2° 1026.6 hPa 2.6 m/s 28.5 mm 16.4° 1026.6 hPa 2.8 m/s 13.6° 1027.1 hPa 1.0 m/s 28.5 mm
17:00 16.1° 1026.1 hPa 2.6 m/s 28.5 mm 16.3° 1026.0 hPa 2.7 m/s 14.0° 1027.2 hPa 2.0 m/s 28.5 mm
20:00 16.0° 1025.5 hPa 2.5 m/s 29.5 mm 16.2° 1025.4 hPa 2.6 m/s 13.5° 1026.7 hPa 1.5 m/s 29.5 mm
23:00 15.2° 1025.6 hPa 2.3 m/s 29.5 mm 15.3° 1025.5 hPa 2.4 m/s 13.7° 1027.1 hPa 1.7 m/s 29.5 mm
 04:29     22:53    Daglengte: 18:24 Woensdag 26 Jun
02:00 14.3° 1025.7 hPa 2.1 m/s 29.5 mm 14.4° 1025.6 hPa 2.2 m/s 13.4° 1026.9 hPa 0.9 m/s 29.5 mm
05:00 14.4° 1024.9 hPa 2.3 m/s 29.5 mm 14.5° 1024.8 hPa 2.4 m/s 13.6° 1025.8 hPa 1.4 m/s 29.5 mm
08:00 14.6° 1024.2 hPa 2.5 m/s 29.5 mm 14.6° 1024.1 hPa 2.6 m/s 14.0° 1025.6 hPa 0.8 m/s 29.5 mm
11:00 15.6° 1024.6 hPa 3.6 m/s 29.5 mm 15.7° 1024.4 hPa 3.8 m/s 14.5° 1025.9 hPa 1.1 m/s 29.5 mm
14:00 16.7° 1024.9 hPa 4.8 m/s 29.6 mm 16.8° 1024.8 hPa 5.1 m/s 15.0° 1025.7 hPa 1.0 m/s 29.6 mm
20:00 14.3° 1022.3 hPa 6.2 m/s 29.6 mm 14.2° 1022.1 hPa 6.6 m/s 15.9° 1024.2 hPa 1.5 m/s 29.6 mm
 04:29     22:53    Daglengte: 18:24 Donderdag 27 Jun
02:00 11.7° 1022.9 hPa 5.0 m/s 29.6 mm 11.4° 1022.8 hPa 5.4 m/s 15.3° 1024.0 hPa 0.2 m/s 29.6 mm
08:00 12.4° 1021.4 hPa 4.7 m/s 29.6 mm 12.1° 1021.3 hPa 5.0 m/s 15.5° 1023.0 hPa 1.0 m/s 29.6 mm
14:00 14.7° 1020.6 hPa 5.8 m/s 29.6 mm 14.5° 1020.5 hPa 6.2 m/s 16.6° 1021.9 hPa 1.6 m/s 29.6 mm
20:00 14.4° 1018.0 hPa 6.0 m/s 29.6 mm 14.2° 1017.8 hPa 6.4 m/s 16.9° 1020.0 hPa 1.5 m/s 29.6 mm
 04:30     22:53    Daglengte: 18:23 Vrijdag 28 Jun
02:00 11.9° 1018.0 hPa 4.7 m/s 29.6 mm 11.6° 1018.0 hPa 5.1 m/s 15.0° 1018.3 hPa 0.6 m/s 29.6 mm
08:00 12.0° 1016.3 hPa 4.8 m/s 29.6 mm 11.6° 1016.4 hPa 5.1 m/s 15.9° 1015.6 hPa 1.2 m/s 29.6 mm
14:00 15.2° 1015.9 hPa 5.0 m/s 29.6 mm 15.0° 1016.2 hPa 5.4 m/s 18.0° 1013.1 hPa 0.2 m/s 29.6 mm
20:00 14.3° 1014.0 hPa 5.5 m/s 29.7 mm 14.0° 1014.3 hPa 5.8 m/s 17.5° 1010.9 hPa 2.7 m/s 29.7 mm
 04:31     22:52    Daglengte: 18:21 Zaterdag 29 Jun
02:00 13.9° 1012.2 hPa 4.4 m/s 37.3 mm 13.9° 1012.2 hPa 4.4 m/s 37.3 mm
08:00 13.4° 1012.3 hPa 1.8 m/s 0.4 mm
14:00 14.4° 1012.3 hPa 3.7 m/s 0.3 mm
20:00 13.8° 1011.4 hPa 3.2 m/s 0.1 mm
 04:32     22:52    Daglengte: 18:20 Zondag 30 Jun
02:00 12.8° 1011.1 hPa 1.5 m/s 0.6 mm
08:00 13.3° 1010.4 hPa 0.6 m/s 0.6 mm
14:00 14.5° 1010.4 hPa 2.6 m/s 0.4 mm
20:00 14.0° 1010.1 hPa 3.3 m/s 0.3 mm
 04:33     22:51    Daglengte: 18:18 Maandag 01 Jul
02:00 12.9° 1010.5 hPa 1.9 m/s 0.5 mm
08:00 13.1° 1010.0 hPa 1.9 m/s 0.3 mm
14:00 14.3° 1010.0 hPa 4.1 m/s 0.2 mm
20:00 13.8° 1009.6 hPa 5.3 m/s 0.3 mm
 04:34     22:51    Daglengte: 18:17 Dinsdag 02 Jul
02:00 12.5° 1010.1 hPa 4.5 m/s 0.1 mm
08:00 12.9° 1010.0 hPa 4.1 m/s 0.2 mm
14:00 14.3° 1010.3 hPa 4.9 m/s 0.2 mm
20:00 13.9° 1010.4 hPa 5.5 m/s 0.3 mm
 04:35     22:50    Daglengte: 18:15 Woensdag 03 Jul
02:00 12.6° 1011.2 hPa 4.2 m/s 0.2 mm
08:00 12.8° 1011.2 hPa 4.0 m/s 0.3 mm
14:00 14.0° 1011.7 hPa 4.7 m/s 0.3 mm
20:00 13.4° 1011.7 hPa 4.9 m/s 0.3 mm
 04:36     22:49    Daglengte: 18:13 Donderdag 04 Jul
02:00 12.1° 1012.3 hPa 3.4 m/s 0.1 mm
08:00 12.6° 1012.2 hPa 3.4 m/s 0.1 mm
FMI Hirlam - 7.5 km EWN WRFDA - 12 km DWD ICON - 7 km GFS - 25 km Basiskaart






























































Updatetijd (Europe/Amsterdam) Resolutie Lengte Stap
FMI Hirlam 07:00, 13:00, 19:00, 01:00 7.5 km 49h 1h
EWN WRFDA 10:15, 16:15, 22:15, 04:15 12 km 73h 1h
DWD ICON 11:45, 17:45, 23:45, 05:45 7 km 75h 1h
GFS 08:45, 14:45, 20:45, 02:45 25 km 237h 3h
30+ mm
25-30 mm
20-25 mm
15-20 mm
10-15 mm
6-10 mm
4-6 mm
2-4 mm
1-2 mm
0.5-1 mm
0.2-0.5 mm
0.1-0.2 mm
30+ mm
25-30 mm
20-25 mm
15-20 mm
10-15 mm
6-10 mm
4-6 mm
2-4 mm
1-2 mm
0.5-1 mm
0.2-0.5 mm
0.1-0.2 mm
Sneeuwval
Natte sneeuw
Hagel
Vorst
30+ mm
25-30 mm
20-25 mm
15-20 mm
10-15 mm
6-10 mm
4-6 mm
2-4 mm
1-2 mm
0.5-1 mm
0.2-0.5 mm
0.1-0.2 mm
Sneeuwval
Natte sneeuw
Hagel
Vorst
Onweer
50 mm
40 mm
30 mm
26 mm
22 mm
18 mm
14 mm
10 mm
9 mm
8 mm
7 mm
6 mm
5 mm
4.5 mm
4 mm
3.5 mm
3 mm
2.5 mm
2 mm
1.5 mm
1 mm
0.8 mm
0.6 mm
0.4 mm
0.2 mm
0.05 mm
35°
30°
25°
20°
15°
10°
-5°
-10°
-15°
-20°
-25°
-30°
-35°
33> m/s
29 m/s
25 m/s
21 m/s
17 m/s
14 m/s
11 m/s
8 m/s
5 m/s
3 m/s
0 m/s
2600 J/kg
2400 J/kg
2200 J/kg
2000 J/kg
1800 J/kg
1600 J/kg
1400 J/kg
1200 J/kg
1000 J/kg
800 J/kg
600 J/kg
400 J/kg
200 J/kg
70 dBZ
65 dBZ
60 dBZ
55 dBZ
50 dBZ
45 dBZ
40 dBZ
35 dBZ
30 dBZ
25 dBZ